Hourly Data Report for September 30, 2017

All times are specified in Local Standard Time (LST). Add 1 hour to adjust for Daylight Saving Time where and when it is observed.

BUCTOUCHE CDA CS
NEW BRUNSWICK

46°25'49.006" N
64°46'05.009" W
35.90 m
8100593
71666
ABT

Download Data

Hourly Data (September 2017)
Hourly Data Report for September 30, 2017
Temp Definition
°C
Dew Point Temp Definition
°C
Rel Hum Definition
%
Wind Dir Definition
10's deg

Wind Spd Definition
km/h
Visibility Definition
km
Stn Press Definition
kPa
Hmdx Definition


Wind Chill Definition


Weather Definition


TIME
00:00 5.8 4.1 89 33 3   101.34     LegendNANA
01:00 4.2 2.6 89 0 1   101.40     LegendNANA
02:00 5.6 3.4 86 31 7   101.45     LegendNANA
03:00 4.1 2.2 88 27 5   101.48     LegendNANA
04:00 3.3 1.8 90 26 4   101.53     LegendNANA
05:00 2.8 1.7 93 27 5   101.58     LegendNANA
06:00 3.0 1.8 92 21 6   101.67     LegendNANA
07:00 3.1 1.9 91 23 4   101.75     LegendNANA
08:00 4.5 3.1 90 29 4   101.81     LegendNANA
09:00 5.9 3.9 87 25 4   101.88     LegendNANA
10:00 8.4 5.8 83 32 4   101.89     LegendNANA
11:00 9.1 4.4 72 2 15   101.92     LegendNANA
12:00 10.2 4.0 65 2 13   101.93     LegendNANA
13:00 9.8 4.3 68 2 12   101.92     LegendNANA
14:00 9.9 4.0 67 3 14   101.91     LegendNANA
15:00 10.8 3.4 61 3 9   101.89     LegendNANA
16:00 10.6 3.3 60 3 8   101.86     LegendNANA
17:00 9.7 3.0 63 6 5   101.86     LegendNANA
18:00 7.1 2.7 73 9 5   101.87     LegendNANA
19:00 3.8 2.3 90 11 4   101.92     LegendNANA
20:00 2.4 1.0 91 17 5   101.94     LegendNANA
21:00 2.2 1.2 93 20 5   101.92     LegendNANA
22:00 1.9 0.9 93 22 6   101.91     LegendNANA
23:00 1.0 0.2 95 22 6   101.88     LegendNANA

Notes on Data Quality.

Legend

  • E = Estimated
  • M = Missing
  • NA = Not Available
  • ‡ = Partner data that is not subject to review by the National Climate Archives
Date modified: